When you browse on this site, cookies collect data to enhance your experience and personalize the content and advertising you see.
Visit our Privacy Policy to learn more. By continuing to use the site, you agree to this use of cookies and data.
  • în România
  • Lista ţărilor
  • Pe 7 zile
  • Temperatura apei
  • Hartă satelitară
  • Meteo pe hartă
  • Widget-uri
  • user-avatar
    Intrare

    Meteo pe oră la Malonakaryakovo

    Astăzi, 21 Mai, Marţi

    Timp Temperatura Precipitaţii Vânt Presiune Umiditate
    00:00 +2°C° 0 mm 2 m/s 743 mmHg 81%
    01:00 +2°C° 0 mm 2 m/s 743 mmHg 83%
    02:00 +2°C° 0 mm 2 m/s 743 mmHg 83%
    03:00 +1°C° 0 mm 2 m/s 743 mmHg 83%
    04:00 +1°C° 0 mm 2 m/s 743 mmHg 84%
    05:00 +3°C° 0 mm 2 m/s 743 mmHg 79%
    06:00 +3°C° 0 mm 3 m/s 743 mmHg 74%
    07:00 +5°C° 0 mm 3 m/s 744 mmHg 69%
    08:00 +6°C° 0 mm 4 m/s 744 mmHg 61%
    09:00 +8°C° 0 mm 5 m/s 744 mmHg 53%
    10:00 +9°C° 0 mm 6 m/s 744 mmHg 45%
    11:00 +10°C° 0 mm 6 m/s 744 mmHg 45%
    12:00 +10°C° 0 mm 6 m/s 744 mmHg 44%
    13:00 +11°C° 0 mm 6 m/s 744 mmHg 43%
    14:00 +11°C° 0 mm 6 m/s 744 mmHg 43%
    15:00 +11°C° 0 mm 6 m/s 744 mmHg 44%
    16:00 +12°C° 0 mm 5 m/s 744 mmHg 44%
    17:00 +10°C° 0 mm 5 m/s 744 mmHg 49%
    18:00 +11°C° 0 mm 4 m/s 744 mmHg 54%
    19:00 +10°C° 0 mm 3 m/s 744 mmHg 59%
    20:00 +9°C° 0 mm 3 m/s 744 mmHg 63%
    21:00 +7°C° 0 mm 2 m/s 744 mmHg 68%
    22:00 +6°C° 0 mm 2 m/s 745 mmHg 72%
    23:00 +6°C° 0 mm 2 m/s 745 mmHg 71%

    Mâine, 22 Mai, Miercuri

    Timp Temperatura Precipitaţii Vânt Presiune Umiditate
    00:00 +5°C° 0 mm 2 m/s 745 mmHg 69%
    01:00 +5°C° 0 mm 2 m/s 745 mmHg 68%
    02:00 +5°C° 0 mm 2 m/s 745 mmHg 68%
    03:00 +5°C° 0 mm 2 m/s 745 mmHg 68%
    04:00 +4°C° 0 mm 2 m/s 745 mmHg 68%
    05:00 +6°C° 0 mm 2 m/s 745 mmHg 67%
    06:00 +7°C° 0 mm 2 m/s 745 mmHg 66%
    07:00 +8°C° 0 mm 3 m/s 745 mmHg 64%
    08:00 +9°C° 0 mm 3 m/s 745 mmHg 58%
    09:00 +11°C° 0 mm 3 m/s 745 mmHg 51%
    10:00 +13°C° 0 mm 4 m/s 745 mmHg 45%
    11:00 +13°C° 0 mm 4 m/s 745 mmHg 43%
    12:00 +14°C° 0 mm 4 m/s 745 mmHg 42%
    13:00 +14°C° 0 mm 4 m/s 744 mmHg 41%
    14:00 +14°C° 0 mm 4 m/s 744 mmHg 41%
    15:00 +14°C° 0 mm 4 m/s 744 mmHg 41%
    16:00 +16°C° 0 mm 3 m/s 744 mmHg 41%
    17:00 +14°C° 0 mm 3 m/s 744 mmHg 46%
    18:00 +14°C° 0 mm 2 m/s 743 mmHg 52%
    19:00 +14°C° 0 mm 1 m/s 743 mmHg 57%
    20:00 +12°C° 0 mm 2 m/s 743 mmHg 59%
    21:00 +10°C° 0 mm 2 m/s 743 mmHg 61%
    22:00 +8°C° 0 mm 2 m/s 743 mmHg 64%
    23:00 +8°C° 0 mm 2 m/s 743 mmHg 67%

    Poimâine, 23 Mai, Joi

    Timp Temperatura Precipitaţii Vânt Presiune Umiditate
    00:00 +8°C° 0 mm 2 m/s 743 mmHg 71%
    01:00 +7°C° 0 mm 3 m/s 743 mmHg 74%
    02:00 +7°C° 0 mm 3 m/s 742 mmHg 80%
    03:00 +7°C° 0 mm 3 m/s 742 mmHg 86%
    04:00 +7°C° 0 mm 3 m/s 741 mmHg 91%
    05:00 +7°C° 0.1 mm 4 m/s 741 mmHg 90%
    06:00 +8°C° 0.1 mm 5 m/s 740 mmHg 89%
    07:00 +9°C° 0.1 mm 6 m/s 739 mmHg 89%
    08:00 +9°C° 0.5 mm 6 m/s 739 mmHg 89%
    09:00 +10°C° 0.5 mm 6 m/s 738 mmHg 90%
    10:00 +11°C° 0.5 mm 7 m/s 737 mmHg 91%
    11:00 +13°C° 0.7 mm 8 m/s 736 mmHg 84%
    12:00 +16°C° 0.7 mm 9 m/s 736 mmHg 77%
    13:00 +18°C° 0.7 mm 10 m/s 735 mmHg 69%
    14:00 +17°C° 0.8 mm 9 m/s 735 mmHg 72%
    15:00 +16°C° 0.8 mm 8 m/s 735 mmHg 75%
    16:00 +15°C° 0.8 mm 8 m/s 735 mmHg 78%
    17:00 +14°C° 1.4 mm 7 m/s 734 mmHg 83%
    18:00 +12°C° 1.4 mm 7 m/s 734 mmHg 87%
    19:00 +11°C° 1.4 mm 6 m/s 734 mmHg 91%
    20:00 +11°C° 1.8 mm 6 m/s 734 mmHg 91%
    21:00 +11°C° 1.8 mm 7 m/s 734 mmHg 92%
    22:00 +11°C° 1.8 mm 7 m/s 734 mmHg 93%
    23:00 +10°C° 3 mm 6 m/s 734 mmHg 93%

    24 Mai, Vineri

    Timp Temperatura Precipitaţii Vânt Presiune Umiditate
    00:00 +10°C° 3 mm 5 m/s 734 mmHg 94%
    01:00 +9°C° 3 mm 5 m/s 734 mmHg 94%
    02:00 +8°C° 0.7 mm 4 m/s 734 mmHg 94%
    03:00 +7°C° 0.7 mm 4 m/s 735 mmHg 94%
    04:00 +6°C° 0.7 mm 4 m/s 735 mmHg 93%
    05:00 +6°C° 0.2 mm 4 m/s 735 mmHg 91%
    06:00 +6°C° 0.2 mm 4 m/s 736 mmHg 90%
    07:00 +5°C° 0.2 mm 4 m/s 736 mmHg 88%
    08:00 +6°C° 0 mm 4 m/s 737 mmHg 78%
    09:00 +7°C° 0 mm 4 m/s 737 mmHg 68%
    10:00 +8°C° 0 mm 5 m/s 738 mmHg 59%
    11:00 +10°C° 0 mm 4 m/s 738 mmHg 55%
    12:00 +11°C° 0 mm 4 m/s 738 mmHg 51%
    13:00 +11°C° 0 mm 4 m/s 739 mmHg 48%
    14:00 +11°C° 0 mm 4 m/s 739 mmHg 51%
    15:00 +9°C° 0 mm 5 m/s 739 mmHg 54%
    16:00 +9°C° 0 mm 5 m/s 739 mmHg 56%
    17:00 +8°C° 0 mm 4 m/s 740 mmHg 60%
    18:00 +8°C° 0 mm 4 m/s 740 mmHg 63%
    19:00 +9°C° 0 mm 3 m/s 740 mmHg 67%
    20:00 +7°C° 0 mm 3 m/s 741 mmHg 67%
    21:00 +5°C° 0 mm 3 m/s 741 mmHg 68%
    22:00 +3°C° 0 mm 3 m/s 742 mmHg 69%
    23:00 +2°C° 0 mm 3 m/s 742 mmHg 70%

    25 Mai, Sâmbătă

    Timp Temperatura Precipitaţii Vânt Presiune Umiditate
    00:00 +3°C° 0 mm 2 m/s 743 mmHg 72%
    01:00 +2°C° 0 mm 2 m/s 743 mmHg 73%
    02:00 +1°C° 0 mm 2 m/s 743 mmHg 74%
    03:00 +1°C° 0 mm 2 m/s 744 mmHg 76%
    04:00 -1°C° 0 mm 2 m/s 744 mmHg 78%
    05:00 +1°C° 0 mm 3 m/s 745 mmHg 71%
    06:00 +2°C° 0 mm 3 m/s 745 mmHg 65%
    07:00 +3°C° 0 mm 4 m/s 746 mmHg 59%
    08:00 +4°C° 0 mm 4 m/s 746 mmHg 55%
    09:00 +5°C° 0 mm 5 m/s 746 mmHg 51%
    10:00 +6°C° 0 mm 5 m/s 746 mmHg 48%
    11:00 +7°C° 0 mm 5 m/s 746 mmHg 47%
    12:00 +8°C° 0 mm 5 m/s 746 mmHg 47%
    13:00 +8°C° 0 mm 5 m/s 747 mmHg 47%
    14:00 +9°C° 0 mm 5 m/s 747 mmHg 47%
    15:00 +10°C° 0 mm 4 m/s 747 mmHg 47%
    16:00 +10°C° 0 mm 4 m/s 747 mmHg 47%
    17:00 +10°C° 0 mm 3 m/s 747 mmHg 52%
    18:00 +10°C° 0 mm 2 m/s 747 mmHg 58%
    19:00 +10°C° 0 mm 1 m/s 747 mmHg 63%
    20:00 +8°C° 0 mm 1 m/s 748 mmHg 65%
    21:00 +7°C° 0 mm 1 m/s 748 mmHg 68%
    22:00 +5°C° 0 mm 1 m/s 748 mmHg 70%
    23:00 +5°C° 0 mm 1 m/s 748 mmHg 71%

    26 Mai, Duminică

    Timp Temperatura Precipitaţii Vânt Presiune Umiditate
    00:00 +4°C° 0 mm 2 m/s 749 mmHg 71%
    01:00 +4°C° 0 mm 2 m/s 749 mmHg 72%
    02:00 +3°C° 0 mm 2 m/s 749 mmHg 74%
    03:00 +3°C° 0 mm 2 m/s 749 mmHg 76%
    04:00 +2°C° 0 mm 2 m/s 749 mmHg 78%
    05:00 +3°C° 0 mm 3 m/s 749 mmHg 75%
    06:00 +4°C° 0 mm 3 m/s 750 mmHg 73%
    07:00 +7°C° 0 mm 3 m/s 750 mmHg 70%
    08:00 +8°C° 0 mm 4 m/s 749 mmHg 66%
    09:00 +10°C° 0 mm 4 m/s 749 mmHg 61%
    10:00 +12°C° 0 mm 4 m/s 749 mmHg 57%
    11:00 +13°C° 0 mm 4 m/s 748 mmHg 55%
    12:00 +14°C° 0 mm 4 m/s 748 mmHg 53%
    13:00 +15°C° 0 mm 4 m/s 748 mmHg 51%
    14:00 +15°C° 0 mm 4 m/s 747 mmHg 51%
    15:00 +17°C° 0 mm 4 m/s 747 mmHg 51%
    16:00 +17°C° 0 mm 4 m/s 746 mmHg 50%
    17:00 +16°C° 0 mm 3 m/s 746 mmHg 56%
    18:00 +16°C° 0 mm 3 m/s 746 mmHg 62%
    19:00 +15°C° 0 mm 2 m/s 745 mmHg 68%
    20:00 +13°C° 0 mm 3 m/s 745 mmHg 71%
    21:00 +11°C° 0 mm 3 m/s 745 mmHg 74%
    22:00 +10°C° 0 mm 3 m/s 744 mmHg 77%
    23:00 +10°C° 0 mm 3 m/s 744 mmHg 77%
    Arată mai mult